Temperature
10 10 10 10 9 8 7 7 6 5 5 5 5 5 5 5 5 4 4 4 4 4 4 4 4 4 4 4 5 5 5 5 6 6 6 6 7 7
10 10 9 9 8 8 7 6 6 5 4 4 4 4 4 4 4 4 3 3 3 3 3 3 3 4 4 4 4 4 4 5 5 5 5 6 6 6
10 9 9 8 8 7 7 6 5 4 4 4 4 4 3 3 3 3 3 3 3 3 3 3 3 3 3 3 4 4 4 4 4 4 5 5 5 6
9 9 8 8 7 7 6 5 5 4 3 3 3 3 3 3 2 2 2 2 2 2 2 2 2 2 3 3 3 3 3 3 4 4 4 4 5 5
8 8 7 7 6 6 5 5 4 3 3 3 2 2 2 2 2 2 2 2 2 2 2 1 2 2 2 2 2 2 3 3 3 3 4 4 4 4
7 7 7 6 6 5 5 4 4 3 3 3 2 2 2 2 1 1 1 1 1 1 1 1 1 1 1 2 2 2 2 2 3 3 3 3 4 4
7 7 6 6 5 4 4 4 3 3 2 2 2 2 2 1 1 1 1 1 1 1 1 1 1 1 1 1 1 1 2 2 2 2 2 3 3 3
6 6 6 5 5 4 4 3 3 3 2 2 2 1 1 1 1 1 1 1 0 1 1 1 1 0 1 1 1 1 1 1 1 1 2 2 2 3
6 5 5 4 4 3 3 3 2 2 2 2 2 1 1 1 1 1 1 1 0 1 0 0 0 0 0 0 0 1 1 1 1 1 1 1 2 2
5 4 4 4 3 3 3 2 2 2 2 2 2 2 2 1 1 1 1 1 1 0 0 -0 0 0 0 0 0 0 0 0 0 0 1 1 1 1
4 4 3 3 3 2 2 2 1 2 1 1 1 1 1 1 1 1 1 0 0 0 0 -0 -0 -0 -0 -0 -0 -0 -0 -0 -0 -0 0 0 0 0
3 3 3 2 2 2 1 1 1 1 1 1 1 1 1 1 1 0 0 0 -0 -0 0 -0 -0 -0 -0 -0 -0 -0 -1 -1 -1 -1 -0 -0 -0 -0
3 3 2 2 2 1 1 1 1 0 0 0 0 0 0 0 0 0 0 -0 -0 -0 -0 -1 -1 -1 -1 -1 -1 -1 -1 -1 -1 -1 -1 -1 -1 -1
2 2 2 1 1 1 0 0 -0 -0 -0 -0 -0 -0 -0 -0 -0 -0 -0 -0 -0 -1 -1 -1 -1 -1 -1 -1 -1 -1 -1 -1 -1 -1 -1 -1 -1 -1
1 1 1 1 0 -0 -0 -0 -1 -1 -1 -1 -1 -1 -1 -1 -1 -1 -1 -1 -1 -1 -1 -1 -1 -1 -2 -2 -2 -2 -2 -1 -2 -2 -2 -2 -2 -2
1 0 0 -0 -0 -0 -1 -1 -1 -1 -1 -1 -1 -1 -1 -1 -1 -1 -1 -1 -1 -1 -1 -1 -2 -2 -2 -2 -2 -2 -2 -2 -2 -2 -2 -2 -2 -2
0 -0 -0 -1 -1 -1 -1 -1 -1 -1 -1 -2 -2 -2 -2 -2 -2 -2 -2 -2 -2 -1 -2 -2 -2 -2 -2 -2 -2 -2 -2 -2 -2 -2 -2 -2 -2 -2
-0 -0 -0 -0 -1 -1 -1 -1 -1 -1 -1 -2 -2 -2 -2 -2 -2 -2 -2 -2 -2 -2 -2 -2 -3 -3 -3 -2 -2 -2 -2 -3 -3 -3 -3 -3 -3 -3
-1 -0 -1 -1 -1 -1 -1 -1 -1 -2 -2 -2 -2 -2 -3 -3 -3 -3 -3 -3 -3 -3 -3 -3 -3 -3 -3 -3 -3 -3 -3 -3 -3 -3 -3 -3 -3 -3
-1 -1 -1 -1 -1 -1 -1 -2 -2 -2 -2 -2 -2 -3 -3 -3 -3 -3 -3 -3 -3 -3 -3 -3 -3 -3 -4 -4 -4 -3 -3 -4 -4 -4 -4 -4 -4 -4
-1 -1 -1 -1 -1 -1 -2 -2 -2 -2 -2 -2 -3 -3 -3 -3 -3 -3 -3 -3 -3 -4 -3 -3 -3 -4 -5 -5 -5 -4 -4 -4 -5 -5 -5 -5 -4 -4
-1 -1 -1 -1 -1 -2 -2 -2 -2 -2 -2 -3 -3 -3 -3 -3 -3 -3 -4 -4 -4 -4 -4 -4 -5 -5 -5 -5 -5 -5 -5 -5 -5 -5 -5 -5 -6 -5
-1 -1 -2 -2 -2 -2 -2 -2 -2 -2 -3 -3 -3 -3 -3 -3 -3 -4 -4 -4 -4 -4 -5 -5 -5 -5 -5 -5 -5 -5 -5 -6 -6 -6 -5 -6 -6 -6
Wind_Speed
5 5 4 3 3 3 3 4 4 4 4 3 3 2 2 2 2 2 3 6 6 6 7 7 8 8 8 9 10 10 11 11 10 9 8 7 6 4
4 5 4 3 3 3 3 3 4 4 3 1 2 2 2 2 2 2 3 5 6 5 6 7 7 7 8 8 9 10 10 11 10 9 8 8 7 6
6 5 5 4 3 3 3 3 3 4 5 2 1 2 2 2 2 2 2 2 3 5 5 5 6 6 7 7 8 9 10 10 11 10 8 8 8 6
7 6 6 4 4 3 3 3 3 4 4 4 2 2 2 2 2 1 1 2 2 4 4 5 5 6 6 6 7 8 9 9 10 11 10 10 9 8
7 7 6 6 5 4 4 3 3 3 3 3 2 2 1 2 2 1 1 1 1 2 2 4 5 5 6 6 7 7 8 9 10 11 12 11 10 9
6 6 6 5 5 5 4 4 3 4 4 4 3 2 2 2 2 2 2 1 1 0 1 2 3 4 5 6 6 7 7 8 9 10 11 12 11 10
7 6 5 5 4 4 3 4 4 4 4 4 4 3 3 3 3 3 3 2 2 1 2 1 0 1 2 4 5 6 6 7 8 9 10 11 11 10
7 6 6 6 6 6 5 4 3 4 5 4 4 5 5 5 3 3 3 2 3 2 2 1 1 0 1 3 5 5 5 6 7 8 9 9 10 10
7 7 6 6 7 5 6 5 4 3 4 5 5 5 4 5 5 5 4 3 2 1 2 2 2 2 1 2 4 4 4 5 6 6 7 8 8 9
8 8 7 8 7 7 6 5 4 3 3 4 4 3 3 4 4 4 3 2 1 1 2 2 2 2 1 1 3 4 3 3 4 5 5 6 6 6
7 8 8 8 10 10 7 6 5 4 3 2 1 2 3 4 5 4 4 3 3 3 2 2 1 1 2 2 1 2 2 2 3 4 4 5 5 4
7 8 10 10 11 12 8 7 7 5 5 5 4 5 5 5 5 4 4 3 2 2 3 2 2 1 2 2 2 2 1 1 2 3 3 3 4 3
7 7 8 13 13 13 11 7 7 6 5 5 5 4 4 4 4 3 3 2 2 2 3 2 2 2 1 1 2 2 2 3 3 2 2 2 3 3
7 6 7 13 14 14 11 9 9 8 5 5 5 5 5 4 3 3 3 2 1 1 3 3 2 2 2 2 2 2 2 3 3 3 3 3 4 4
7 8 9 12 13 11 13 12 11 8 6 6 6 5 4 4 4 3 3 3 2 2 3 3 2 2 2 2 2 2 2 2 3 4 4 4 4 4
7 9 12 12 10 9 9 10 9 8 8 7 6 5 4 4 5 4 4 4 3 3 4 4 4 4 4 4 4 4 4 3 3 3 4 5 6 7
8 6 7 7 8 8 8 8 8 8 8 7 6 6 6 6 5 5 4 4 4 3 4 4 6 6 6 5 5 6 6 5 5 4 4 5 6 7
10 7 8 9 9 9 9 9 9 9 9 8 7 7 7 7 6 6 5 6 6 6 5 5 4 3 4 7 11 8 6 6 5 5 5 5 6 6
10 8 9 9 9 9 9 9 9 9 8 8 8 8 7 7 7 7 7 7 7 7 6 6 6 5 5 4 5 12 6 4 4 5 5 6 6 5
9 9 9 9 9 9 9 9 8 8 8 8 9 8 8 8 8 8 8 9 8 7 7 7 8 9 8 4 3 4 11 8 5 5 5 5 7 9
9 9 9 8 8 8 8 8 8 8 8 9 9 9 9 9 9 9 9 11 10 8 9 9 9 10 5 2 4 5 6 13 11 6 4 5 5 5
8 8 8 8 8 8 8 8 8 8 9 9 9 9 9 9 10 10 9 9 9 9 9 7 6 7 7 8 8 7 5 6 11 16 15 12 6 4
6 7 7 7 7 7 7 8 9 8 9 9 9 9 9 9 9 9 9 9 9 9 8 7 7 7 8 8 9 8 8 7 6 7 10 18 22 24
Wind_Direction
190 195 202 196 204 217 226 232 243 254 242 193 179 164 149 115 70 43 48 54 57 57 53 49 42 34 27 23 19 16 12 8 4 4 3 359 355 348
180 186 187 187 191 200 215 228 238 249 254 168 172 159 158 131 96 76 61 61 58 58 53 48 41 33 29 25 21 16 12 10 7 4 7 8 5 8
179 185 185 185 192 194 202 215 224 232 246 219 157 159 168 163 137 109 74 51 54 52 52 46 39 33 31 28 25 19 16 14 15 16 21 22 20 22
183 184 185 183 190 192 203 212 219 224 240 236 182 171 179 178 167 143 87 60 51 51 49 46 40 36 34 31 28 26 23 21 24 28 33 32 32 34
184 187 186 188 193 193 199 203 209 219 229 235 198 168 162 170 174 163 133 88 58 40 52 50 44 40 40 38 33 31 32 34 35 37 37 36 37 37
180 184 186 193 196 192 195 200 202 213 216 217 200 182 177 177 193 197 198 202 199 5 68 44 46 47 44 40 39 37 38 39 40 41 40 40 41 43
177 180 181 178 182 193 198 197 199 209 210 207 201 191 192 191 200 193 209 200 200 240 243 213 293 37 42 34 41 43 43 44 43 41 41 41 42 46
178 177 171 172 179 189 189 195 211 218 215 212 213 214 212 204 186 187 188 201 214 187 239 210 230 186 47 25 29 41 48 49 47 42 40 41 42 45
180 179 178 182 183 183 177 179 189 213 243 237 229 224 213 197 185 189 194 208 211 133 233 209 201 207 113 33 28 41 53 49 44 39 38 38 39 41
189 190 188 187 187 186 190 195 200 198 210 230 240 227 206 180 180 184 180 176 158 163 238 227 206 212 192 165 42 33 41 45 36 30 30 30 32 36
194 197 197 197 188 188 192 198 202 196 181 195 192 161 151 163 168 162 168 186 200 183 193 230 201 216 222 207 136 28 26 26 23 19 17 17 20 14
193 198 204 204 192 194 200 201 207 200 184 173 166 161 167 165 179 192 186 195 198 192 174 201 189 202 218 201 214 244 251 288 353 353 354 358 353 329
195 198 201 202 203 204 208 213 211 196 191 191 189 184 181 178 181 183 180 191 202 201 154 169 187 200 229 223 214 224 249 264 269 279 294 324 325 312
202 202 198 199 205 207 209 209 203 197 196 196 201 201 198 191 177 170 162 154 150 180 161 167 187 198 208 236 231 214 236 252 262 265 264 274 276 278
205 201 196 198 203 209 212 206 202 203 201 205 209 207 199 176 155 149 145 143 145 163 174 186 198 199 225 241 248 246 251 240 241 252 255 260 263 262
202 200 201 203 204 207 206 207 209 208 207 214 211 198 176 174 184 181 184 183 200 202 191 200 206 207 227 239 248 252 245 246 235 237 253 260 255 247
178 179 186 190 198 202 206 208 205 204 211 213 206 198 193 192 194 187 190 192 209 207 193 192 202 217 239 248 244 245 244 243 243 241 249 260 253 243
181 189 197 201 204 204 205 206 206 209 210 207 206 205 202 200 198 191 196 206 218 220 210 191 183 201 232 240 224 240 245 244 240 231 237 257 265 248
196 201 205 206 207 207 209 209 210 208 202 204 207 207 205 205 203 203 204 211 219 221 213 197 194 203 230 252 207 208 224 228 227 231 234 241 260 266
204 206 208 208 207 208 209 210 210 205 202 206 207 207 206 207 209 211 211 212 217 217 216 208 207 210 219 246 253 210 214 224 230 238 246 253 264 271
206 209 210 208 207 206 208 208 207 206 204 204 208 208 207 208 213 215 215 215 216 219 221 222 217 208 214 223 248 245 223 221 228 236 241 256 270 267
208 210 210 209 206 205 205 204 205 207 206 208 210 209 208 209 214 214 214 214 216 221 227 222 182 184 198 216 235 245 240 226 232 238 242 239 240 245
211 212 211 209 208 205 204 205 206 209 208 208 209 209 208 210 213 214 215 217 219 219 217 211 197 198 210 220 234 244 246 241 242 243 243 240 242 251
Height
1512 1512 1512 1512 1511 1511 1511 1512 1513 1513 1512 1510 1509 1509 1509 1508 1508 1508 1508 1507 1506 1506 1505 1503 1502 1502 1501 1500 1500 1499 1499 1499 1499 1499 1499 1499 1499 1500
1507 1507 1507 1507 1507 1506 1507 1507 1507 1508 1508 1507 1506 1506 1506 1505 1505 1505 1505 1504 1503 1503 1502 1501 1500 1499 1498 1498 1498 1497 1497 1496 1496 1496 1496 1496 1497 1497
1502 1502 1502 1502 1502 1502 1502 1502 1502 1503 1503 1503 1503 1502 1502 1502 1502 1502 1502 1502 1501 1500 1499 1498 1497 1497 1496 1495 1495 1495 1495 1494 1494 1494 1494 1494 1494 1495
1497 1498 1498 1497 1497 1497 1497 1497 1498 1498 1499 1499 1499 1499 1499 1499 1499 1499 1499 1499 1498 1497 1497 1496 1495 1494 1494 1493 1493 1493 1493 1492 1492 1492 1492 1493 1493 1493
1493 1493 1493 1493 1493 1493 1493 1493 1493 1494 1494 1495 1495 1495 1495 1495 1496 1496 1496 1496 1496 1495 1494 1493 1493 1492 1492 1491 1491 1491 1491 1491 1491 1491 1491 1491 1492 1492
1488 1488 1488 1489 1489 1489 1489 1489 1489 1490 1490 1491 1491 1491 1492 1492 1492 1493 1493 1493 1493 1492 1492 1491 1491 1490 1490 1489 1489 1489 1489 1489 1489 1489 1490 1490 1490 1491
1483 1484 1484 1484 1484 1485 1485 1485 1485 1486 1486 1487 1487 1488 1488 1489 1489 1489 1490 1490 1490 1490 1489 1489 1489 1488 1488 1488 1488 1488 1488 1488 1488 1489 1489 1489 1489 1490
1478 1479 1479 1480 1480 1481 1481 1481 1482 1482 1482 1483 1484 1484 1485 1485 1486 1486 1487 1487 1488 1488 1487 1487 1487 1486 1486 1486 1486 1486 1487 1487 1487 1488 1488 1488 1488 1489
1474 1474 1475 1475 1476 1477 1477 1477 1478 1478 1479 1480 1480 1481 1482 1482 1483 1483 1484 1484 1485 1485 1485 1485 1485 1485 1485 1484 1484 1485 1485 1485 1486 1486 1487 1487 1487 1488
1469 1470 1471 1471 1472 1472 1473 1473 1474 1474 1475 1476 1477 1477 1478 1479 1479 1481 1481 1482 1482 1482 1483 1483 1483 1483 1483 1483 1483 1483 1483 1484 1484 1485 1485 1486 1486 1486
1464 1465 1466 1467 1467 1468 1469 1470 1471 1471 1472 1472 1473 1474 1474 1476 1476 1478 1478 1479 1479 1480 1481 1481 1481 1481 1481 1481 1481 1481 1482 1482 1483 1483 1483 1484 1484 1485
1459 1461 1462 1462 1463 1464 1465 1466 1467 1468 1469 1469 1470 1471 1472 1472 1473 1474 1475 1476 1477 1478 1478 1478 1478 1479 1479 1479 1479 1479 1480 1480 1480 1481 1481 1482 1482 1482
1454 1456 1457 1458 1458 1460 1461 1463 1464 1465 1465 1466 1467 1468 1469 1469 1470 1471 1472 1473 1474 1475 1476 1476 1476 1477 1477 1477 1477 1477 1477 1477 1478 1478 1478 1479 1479 1480
1449 1451 1452 1453 1454 1456 1457 1459 1460 1461 1462 1462 1463 1464 1465 1466 1467 1468 1469 1470 1471 1472 1473 1473 1474 1474 1475 1475 1475 1475 1475 1475 1475 1475 1475 1476 1476 1476
1444 1446 1447 1448 1450 1452 1453 1454 1456 1457 1457 1458 1460 1461 1462 1463 1464 1465 1466 1467 1468 1469 1470 1470 1471 1471 1472 1472 1472 1472 1472 1472 1472 1472 1472 1472 1473 1473
1439 1441 1442 1444 1445 1447 1448 1449 1451 1452 1453 1454 1456 1457 1458 1459 1460 1462 1463 1463 1464 1465 1466 1467 1467 1468 1468 1468 1468 1468 1469 1469 1468 1468 1468 1468 1469 1469
1433 1435 1437 1438 1440 1441 1443 1444 1445 1447 1448 1450 1451 1452 1453 1455 1456 1457 1458 1459 1460 1461 1462 1463 1463 1464 1464 1464 1464 1464 1464 1464 1465 1465 1464 1464 1464 1464
1428 1429 1431 1432 1434 1435 1437 1438 1440 1441 1443 1444 1446 1447 1449 1450 1451 1453 1454 1455 1456 1457 1458 1458 1459 1459 1460 1460 1461 1460 1460 1460 1460 1460 1460 1459 1459 1460
1422 1423 1425 1427 1428 1430 1431 1433 1434 1436 1437 1439 1440 1442 1443 1444 1446 1447 1448 1449 1450 1452 1453 1453 1454 1454 1455 1455 1455 1456 1456 1456 1455 1455 1455 1455 1454 1455
1415 1417 1419 1421 1422 1424 1426 1427 1429 1430 1431 1432 1434 1436 1437 1438 1440 1441 1442 1444 1445 1446 1446 1447 1448 1449 1450 1450 1450 1449 1451 1451 1450 1450 1450 1450 1449 1449
1409 1411 1413 1415 1416 1418 1420 1421 1422 1424 1425 1426 1428 1429 1431 1432 1433 1435 1436 1437 1438 1439 1440 1441 1442 1444 1444 1444 1444 1443 1445 1445 1445 1445 1445 1444 1443 1443
1403 1405 1407 1409 1410 1412 1413 1415 1416 1417 1419 1420 1421 1422 1424 1425 1427 1428 1429 1430 1431 1432 1434 1435 1436 1436 1437 1437 1437 1438 1438 1439 1439 1439 1439 1438 1438 1437
1397 1399 1401 1402 1404 1405 1407 1408 1410 1411 1412 1413 1415 1416 1417 1418 1420 1421 1422 1424 1425 1426 1427 1428 1428 1429 1430 1430 1431 1431 1432 1432 1432 1432 1432 1432 1432 1431